Last 24 Hours

Coyote Canyon

10 Minute Data | America/Los_Angeles
as of 5/10/26 6:14 AM PDT
Date & Time Temp (°F) Dew Pt (°F) RH (%) Wind Spd (mph) Wind Dir (°) Wind Gust (mph) Wind Gst Dir (°) Daily Max Temp (°F) Daily Min Temp (°F)
5/10/26 - 0610 67.2 27.4 22 12.7 ESE | 111 15.0 ESE | 112 68.9 61.0
5/10/26 - 0600 68.2 29.8 24 13.4 ESE | 108 16.5 ESE | 107 68.9 61.0
5/10/26 - 0550 67.9 30.3 24 15.7 ESE | 107 19.0 ESE | 104 68.3 61.0
5/10/26 - 0540 67.8 30.1 24 16.8 ESE | 106 21.0 ESE | 103 68.3 61.0
5/10/26 - 0530 67.8 28.4 23 17.2 ESE | 116 21.9 ESE | 118 68.3 61.0
5/10/26 - 0520 67.7 24.9 20 16.9 ESE | 108 21.3 ESE | 112 68.3 61.0
5/10/26 - 0510 67.9 27.7 22 17.4 ESE | 105 20.6 ESE | 104 68.3 61.0
5/10/26 - 0500 68.1 25.1 20 17.6 ESE | 107 21.0 E | 101 68.3 61.0
5/10/26 - 0450 67.4 28.0 23 18.5 SE | 128 21.6 W | 270 68.0 61.0
5/10/26 - 0440 66.4 30.3 26 19.7 W | 278 23.0 ESE | 102 67.0 61.0
5/10/26 - 0430 65.0 34.5 32 19.8 W | 274 22.6 WNW | 301 66.1 61.0
5/10/26 - 0420 64.0 37.1 37 18.9 W | 271 22.4 WSW | 246 64.7 61.0
5/10/26 - 0410 63.1 41.2 45 19.5 WNW | 286 23.0 WNW | 298 63.6 61.0
5/10/26 - 0400 63.1 42.8 47 20.1 W | 280 23.8 WNW | 300 63.6 61.0
5/10/26 - 0350 62.9 43.8 50 19.9 WNW | 283 23.8 WNW | 296 63.3 61.0
5/10/26 - 0340 62.2 43.1 49 19.8 WNW | 292 23.1 WNW | 297 62.8 61.0
5/10/26 - 0330 62.1 41.3 46 19.7 WNW | 294 23.8 WNW | 299 62.8 61.0
5/10/26 - 0320 61.7 41.3 47 19.5 WNW | 282 23.2 WNW | 297 62.8 61.0
5/10/26 - 0310 61.6 41.4 47 19.8 WNW | 293 23.2 WNW | 297 62.8 61.0
5/10/26 - 0300 61.2 42.3 50 19.8 WNW | 293 24.1 SSE | 152 62.8 61.0
5/10/26 - 0250 61.3 42.8 51 19.5 WNW | 291 23.4 WNW | 294 62.8 61.1
5/10/26 - 0240 61.4 43.6 52 19.4 WNW | 283 23.2 WNW | 292 62.8 61.1
5/10/26 - 0230 61.8 43.9 52 20.9 W | 274 24.3 WNW | 294 62.8 61.6
5/10/26 - 0220 62.0 43.8 51 20.4 W | 278 24.5 WNW | 294 62.8 61.6
5/10/26 - 0210 61.8 43.7 51 20.3 WNW | 298 24.0 WNW | 289 62.8 61.6
5/10/26 - 0200 61.9 43.8 51 19.9 WNW | 300 23.8 NW | 308 62.8 61.6
5/10/26 - 0150 62.1 44.0 51 20.2 WNW | 300 24.5 WNW | 299 62.8 62.1
5/10/26 - 0140 62.3 44.1 51 20.7 WNW | 300 24.5 WNW | 298 62.8 62.1
5/10/26 - 0130 62.6 44.2 51 21.9 WNW | 293 24.8 WNW | 293 62.8 62.3
5/10/26 - 0120 62.6 44.2 51 20.8 WSW | 247 25.0 SSE | 162 62.8 62.3
5/10/26 - 0110 62.4 43.9 51 20.2 SSW | 198 24.3 WNW | 301 62.6 62.3
5/10/26 - 0100 62.2 43.7 51 21.4 WNW | 288 25.0 WNW | 301 83.9 58.9
5/10/26 - 0050 61.9 43.6 51 22.1 NW | 308 25.6 NW | 308 83.9 58.9
5/10/26 - 0040 62.0 43.7 51 21.7 NW | 308 25.1 NW | 305 83.9 58.9
5/10/26 - 0030 61.9 43.8 51 20.8 NW | 306 25.7 WNW | 303 83.9 58.9
5/10/26 - 0020 61.7 43.8 52 19.7 WNW | 303 25.8 WNW | 286 83.9 58.9
5/10/26 - 0010 61.5 44.0 53 19.2 WNW | 301 23.9 WNW | 298 83.9 58.9
5/10/26 - 0000 61.6 44.2 53 18.5 WNW | 303 22.9 WNW | 303 83.9 58.9
5/9/26 - 2350 62.4 44.6 52 19.7 NW | 304 24.5 WNW | 292 83.9 58.9
5/9/26 - 2340 62.9 44.9 52 21.6 NW | 306 27.2 WNW | 303 83.9 58.9
5/9/26 - 2330 62.1 44.6 53 20.6 NW | 305 24.6 NW | 309 83.9 58.9
5/9/26 - 2320 61.1 43.6 52 19.3 WNW | 303 23.8 NW | 316 83.9 58.9
5/9/26 - 2310 61.8 43.4 51 21.3 WNW | 303 27.2 WNW | 302 83.9 58.9
5/9/26 - 2300 62.0 43.7 51 21.6 NW | 306 25.7 NW | 313 83.9 58.9
5/9/26 - 2250 61.9 43.8 51 19.4 NW | 304 23.0 WNW | 302 83.9 58.9
5/9/26 - 2240 61.8 43.9 52 19.5 NW | 305 23.7 WNW | 301 83.9 58.9
5/9/26 - 2230 61.6 44.0 52 19.8 NW | 305 22.8 NW | 305 83.9 58.9
5/9/26 - 2220 61.9 44.2 52 20.6 NW | 308 23.8 WNW | 303 83.9 58.9
5/9/26 - 2210 62.1 44.3 52 20.9 NW | 309 24.6 NW | 310 83.9 58.9
5/9/26 - 2200 62.3 44.4 52 21.0 NW | 312 24.3 NW | 314 83.9 58.9
5/9/26 - 2150 62.3 44.4 52 20.5 WSW | 241 24.8 SW | 232 83.9 58.9
5/9/26 - 2140 62.5 44.4 51 18.5 WSW | 248 22.6 WSW | 240 83.9 58.9
5/9/26 - 2130 62.9 44.0 50 17.0 WSW | 246 20.5 WSW | 241 83.9 58.9
5/9/26 - 2120 62.9 43.6 49 17.1 WSW | 245 22.4 WSW | 243 83.9 58.9
5/9/26 - 2110 63.2 43.3 48 16.4 WSW | 243 21.2 WSW | 247 83.9 58.9
5/9/26 - 2100 63.6 43.4 48 17.7 WSW | 243 22.4 WSW | 244 83.9 58.9
5/9/26 - 2050 63.6 43.4 48 15.5 WSW | 242 20.4 SW | 227 83.9 58.9
5/9/26 - 2040 64.5 43.5 46 14.8 WSW | 240 18.7 SW | 235 83.9 58.9
5/9/26 - 2030 65.4 43.4 45 16.0 WSW | 239 21.6 SW | 235 83.9 58.9
5/9/26 - 2020 66.1 42.8 43 17.8 SW | 236 21.8 SW | 231 83.9 58.9
5/9/26 - 2010 66.7 42.7 42 16.0 SW | 231 22.1 SW | 221 83.9 58.9
5/9/26 - 2000 67.4 43.2 41 15.0 SW | 236 21.3 WSW | 238 83.9 58.9
5/9/26 - 1950 68.4 43.8 41 14.8 SW | 233 19.4 SW | 230 83.9 58.9
5/9/26 - 1940 69.4 44.3 40 15.6 SW | 226 21.0 SW | 228 83.9 58.9
5/9/26 - 1930 70.5 44.2 39 15.6 SW | 221 20.3 SW | 221 83.9 58.9
5/9/26 - 1920 71.5 43.9 37 16.3 SW | 217 21.8 SW | 216 83.9 58.9
5/9/26 - 1910 72.9 42.0 33 16.3 SSW | 212 22.0 SW | 216 83.9 58.9
5/9/26 - 1900 74.4 36.7 25 16.2 SSW | 212 21.8 SSW | 209 83.9 58.9
5/9/26 - 1850 75.4 34.0 22 16.2 SSW | 207 22.3 SSW | 212 83.9 58.9
5/9/26 - 1840 76.0 34.7 22 14.6 SSW | 207 20.2 SW | 214 83.9 58.9
5/9/26 - 1830 76.2 33.1 21 17.0 SSW | 192 22.9 SW | 215 83.9 58.9
5/9/26 - 1820 76.4 33.8 21 18.8 SE | 137 24.8 SE | 133 83.9 58.9
5/9/26 - 1810 77.1 36.2 23 17.0 SE | 130 23.3 SE | 128 83.9 58.9
5/9/26 - 1800 77.2 39.4 26 17.9 SE | 128 24.1 SE | 144 83.9 58.9
5/9/26 - 1750 77.7 41.9 28 18.2 ESE | 121 24.3 ESE | 123 83.9 58.9
5/9/26 - 1740 78.4 43.5 29 16.6 SE | 124 23.6 SE | 126 83.9 58.9
5/9/26 - 1730 78.6 43.4 29 16.8 SE | 126 24.9 SE | 131 83.9 58.9
5/9/26 - 1720 79.1 43.1 28 16.4 SE | 130 24.0 SE | 131 83.9 58.9
5/9/26 - 1710 79.6 43.4 28 16.8 SE | 131 22.7 SE | 129 83.9 58.9
5/9/26 - 1700 80.0 43.9 28 15.7 SE | 131 24.0 SE | 127 83.9 58.9
5/9/26 - 1650 80.1 43.9 28 17.8 SE | 135 24.8 SE | 135 83.9 58.9
5/9/26 - 1640 80.5 43.2 27 15.0 SE | 135 21.8 SE | 146 83.9 58.9
5/9/26 - 1630 80.1 42.8 27 17.1 SE | 142 23.8 SE | 139 83.9 58.9
5/9/26 - 1620 80.5 42.2 26 17.0 SE | 144 25.1 SSE | 149 83.9 58.9
5/9/26 - 1610 80.6 41.5 25 16.5 SSE | 152 24.3 SSE | 149 83.9 58.9
5/9/26 - 1600 80.9 40.9 24 15.6 SSE | 147 22.4 SSE | 155 83.9 58.9
5/9/26 - 1550 80.9 40.7 24 17.1 SSE | 149 24.2 SSE | 148 83.9 58.9
5/9/26 - 1540 81.9 40.4 23 16.0 SE | 126 24.3 ESE | 115 83.9 58.9
5/9/26 - 1530 81.5 39.4 22 14.7 SE | 138 21.7 ESE | 112 83.9 58.9
5/9/26 - 1520 81.2 39.8 23 16.5 ESE | 116 26.0 ESE | 111 83.9 58.9
5/9/26 - 1510 81.5 40.0 23 16.8 ESE | 110 26.9 ESE | 108 83.9 58.9
5/9/26 - 1500 81.9 39.7 22 16.5 ESE | 112 26.7 ESE | 112 83.9 58.9
5/9/26 - 1450 82.2 38.9 21 15.6 ESE | 110 22.7 ESE | 119 83.5 58.9
5/9/26 - 1440 81.8 37.9 21 17.6 ESE | 114 26.5 ESE | 109 83.5 58.9
5/9/26 - 1430 81.6 37.1 20 16.5 ESE | 119 25.1 ESE | 113 83.5 58.9
5/9/26 - 1420 82.6 36.3 19 15.2 ESE | 118 23.6 ESE | 122 83.5 58.9
5/9/26 - 1410 82.0 35.5 19 17.2 ESE | 114 25.6 ESE | 115 83.1 58.9
5/9/26 - 1400 82.0 34.6 18 17.0 ESE | 107 26.8 ESE | 116 83.1 58.9
5/9/26 - 1350 82.1 35.0 18 16.6 ESE | 115 24.9 ESE | 120 83.1 58.9
5/9/26 - 1340 81.8 35.0 19 16.0 SE | 124 24.6 ESE | 117 83.1 58.9
5/9/26 - 1330 81.4 35.5 19 18.0 ESE | 114 28.7 ESE | 102 83.1 58.9
5/9/26 - 1320 81.5 34.4 18 16.8 WNW | 286 25.8 WNW | 284 83.1 58.9
5/9/26 - 1310 82.0 32.9 17 17.6 WNW | 285 28.5 WNW | 295 83.1 58.9
5/9/26 - 1300 81.8 31.2 16 16.0 WNW | 292 24.4 WNW | 289 83.1 58.9
5/9/26 - 1250 82.0 31.2 16 16.4 WNW | 300 23.9 WNW | 294 83.1 58.9
5/9/26 - 1240 82.0 30.5 15 15.2 WNW | 292 23.3 NW | 307 82.6 58.9
5/9/26 - 1230 81.6 29.8 15 16.1 WNW | 295 24.5 W | 278 82.1 58.9
5/9/26 - 1220 81.4 29.3 15 15.8 WNW | 302 21.6 WNW | 294 82.0 58.9
5/9/26 - 1210 81.2 28.0 14 15.3 WNW | 298 22.7 WNW | 284 82.0 58.9
5/9/26 - 1200 81.3 27.8 14 16.1 WNW | 296 23.8 NW | 320 81.7 58.9
5/9/26 - 1150 80.7 26.6 14 15.2 NW | 308 22.7 NNW | 327 81.5 58.9
5/9/26 - 1140 80.8 26.7 14 15.2 WNW | 302 21.3 NW | 304 81.5 58.9
5/9/26 - 1130 80.4 26.3 14 15.0 WNW | 302 19.8 WNW | 293 81.5 58.9
5/9/26 - 1120 79.8 25.6 14 14.8 NW | 309 22.8 NW | 307 80.8 58.9
5/9/26 - 1110 79.4 25.7 14 14.6 NW | 306 20.0 WNW | 300 80.1 58.9
5/9/26 - 1100 78.6 25.7 14 15.6 NW | 307 21.8 WNW | 298 79.1 58.9
5/9/26 - 1050 78.2 25.5 14 15.1 WNW | 303 22.9 WNW | 297 79.0 58.9
5/9/26 - 1040 77.6 25.6 15 15.6 NW | 304 21.8 WNW | 288 78.5 58.9
5/9/26 - 1030 77.2 25.1 14 16.6 WNW | 298 22.9 NW | 309 77.6 58.9
5/9/26 - 1020 76.6 25.3 15 15.4 WNW | 293 21.0 W | 280 77.1 58.9
5/9/26 - 1010 76.2 25.2 15 17.2 WNW | 286 22.4 WNW | 299 77.0 58.9
5/9/26 - 1000 75.6 24.5 15 16.0 WNW | 296 22.2 WNW | 293 76.1 58.9
5/9/26 - 0950 74.7 24.5 15 17.7 WNW | 298 23.4 WNW | 298 75.3 58.9
5/9/26 - 0940 74.3 26.0 16 17.4 WNW | 296 22.1 WNW | 295 74.8 58.9
5/9/26 - 0930 73.6 25.7 17 18.5 WNW | 293 25.4 W | 281 74.0 58.9
5/9/26 - 0920 72.6 22.9 15 19.4 WNW | 294 26.3 WNW | 287 73.4 58.9
5/9/26 - 0910 72.0 24.3 17 19.8 WNW | 295 25.5 WNW | 284 72.5 58.9
5/9/26 - 0900 71.5 28.5 20 18.2 WNW | 297 25.6 WNW | 290 71.9 58.9
5/9/26 - 0850 70.6 27.2 20 20.1 WNW | 299 27.0 WNW | 294 70.8 58.9
5/9/26 - 0840 70.0 26.2 19 19.1 NW | 304 25.4 WNW | 298 70.5 58.9
5/9/26 - 0830 69.6 25.3 19 19.7 NW | 304 25.1 WNW | 300 69.9 58.9
5/9/26 - 0820 69.1 25.7 19 19.5 NW | 306 26.7 NW | 312 69.3 58.9
5/9/26 - 0810 68.6 25.3 19 19.7 NW | 304 25.6 WNW | 301 68.8 58.9
5/9/26 - 0800 68.2 24.9 19 18.9 NW | 304 25.3 WNW | 301 68.6 58.9
5/9/26 - 0750 67.6 26.1 21 20.6 NW | 308 26.2 WNW | 302 68.0 58.9
5/9/26 - 0740 66.9 29.5 25 19.8 NW | 308 24.4 NW | 306 67.4 58.9
5/9/26 - 0730 65.7 33.4 30 19.0 NW | 308 23.8 NW | 304 66.2 58.9
5/9/26 - 0720 65.0 34.7 32 16.9 NW | 307 21.1 NW | 307 65.2 58.9
5/9/26 - 0710 64.5 33.0 31 16.0 NW | 306 20.8 WNW | 298 64.6 58.9
5/9/26 - 0700 64.1 32.4 30 17.6 NW | 307 22.4 NW | 305 64.4 58.9
5/9/26 - 0650 63.3 32.5 31 17.6 NW | 308 23.0 NW | 310 63.5 58.9
5/9/26 - 0640 62.4 32.1 32 18.4 NW | 308 22.8 NW | 319 63.0 58.9
5/9/26 - 0630 62.1 31.8 32 17.9 NW | 308 24.5 NW | 306 62.7 58.9
5/9/26 - 0620 62.2 32.1 32 18.1 NW | 308 22.7 NW | 306 62.7 58.9
5/9/26 - 0610 62.3 32.8 33 18.0 NW | 308 22.9 NW | 307 62.7 58.9
Max 82.6 44.9 53 22.1 - 28.7 - 83.9 62.3
Avg 70.6 36.7 32 17.8 - 23.4 - - -
Min 61.1 22.9 14 12.7 - 15.0 - 62.6 58.9